Regional Weather Roundup
Issued by NWS Mt. Holly, NJ

Home | Current Version | Previous Version | Text Only | Print | Product List | Glossary On
Versions: 1 2 3 4 5 6 7 8 9 10 11 12 13 14 15 16 17 18 19 20 21 22 23 24 25 26 27 28
000
ASUS41 KPHI 220712
RWRPHI

REGIONAL WEATHER ROUNDUP
NATIONAL WEATHER SERVICE MOUNT HOLLY NJ
300 AM EDT TUE AUG 22 2017

NOTE:  "FAIR" INDICATES FEW OR NO CLOUDS BELOW 12,000 FEET WITH NO
SIGNIFICANT WEATHER AND/OR OBSTRUCTIONS TO VISIBILITY.

 * = STATION DOES NOT REPORT PRECIPITATION (E.G. RAIN, SNOW, ETC.)
        OR FOG.

NJZ015>026-220800-
SOUTHERN NEW JERSEY

CITY           SKY/WX    TMP DP  RH WIND       PRES   REMARKS
POMONA         CLEAR     75  73  93 S5        30.08F
WILDWOOD*      CLEAR     76  74  93 S8        30.10F
MILLVILLE      CLEAR     76  75  97 CALM      30.08F
WRIGHTSTOWN    PTCLDY    73  72  95 SW6       30.04F
MOUNT HOLLY    CLOUDY    73  73 100 CALM      30.07F
TRENTON        MOCLDY    74  72  93 CALM      30.07S

$$
NJZ001>014-220800-
NORTHERN NEW JERSEY

CITY           SKY/WX    TMP DP  RH WIND       PRES   REMARKS
SUSSEX         FOG       67  67 100 CALM      30.06F VSB 3/4
ANDOVER*         N/A     69  68  96 CALM      30.08F
MORRISTOWN     PTCLDY    70  68  94 CALM      30.06F FOG
NEWARK         PTCLDY    74  70  87 SW6       30.06S
TETERBORO      PTCLDY    75  71  87 CALM      30.05F
CALDWELL       CLEAR     73  72  96 SW3       30.06F
SOMERVILLE     CLEAR     69  68  96 CALM      30.05F FOG
ALLAIRE*       MOCLDY    73  71  93 S6        30.08F
TOMS RIVER*    MOCLDY    74  72  93 SW7       30.08F

$$
PAZ043-044-047-054-055-060>062-066>071-220800-
EASTERN PENNSYLVANIA

CITY           SKY/WX    TMP DP  RH WIND       PRES   REMARKS
PHILADELPHIA   MOCLDY    76  73  91 S8        30.07F
NORTH PHILA    CLOUDY    78  75  90 VRB3      30.08F
BLUE BELL*     MOCLDY    70  70 100 CALM      30.09F
DOYLESTOWN     MOCLDY    71  70  96 CALM      30.08S
QUAKERTOWN*    CLOUDY    70  70 100 CALM      30.09F
PERKASIE*      CLOUDY    68  68 100 CALM      30.09F FOG
POTTSTOWN      CLEAR     68  68 100 CALM      30.09F
LANCASTER      FOG       69  69 100 CALM      30.08F VSB 1/2
COATESVILLE    CLEAR     70  70 100 CALM      30.11F FOG
READING        CLEAR     68  68 100 CALM      30.06F
ALLENTOWN      PTCLDY    70  67  90 CALM      30.08F FOG
MOUNT POCONO   CLEAR     66  66 100 W5        30.13F
HAZLETON         N/A     68  64  88 CALM      30.14F
LEHIGHTON      FAIR      64  64 100 CALM      30.09F FOG
WILKES BARRE   CLEAR     68  66  93 CALM      30.08F

$$
DEZALL-MDZ008-012-015-019-020-220800-
DELAWARE AND EASTERN MARYLAND

CITY           SKY/WX    TMP DP  RH WIND       PRES   REMARKS
WILMINGTON     CLEAR     75  74  96 S5        30.08F
DOVER          CLEAR     75  75 100 S8        30.07F
GEORGETOWN     CLEAR     76  73  91 SW7       30.10F
EASTON         CLEAR    N/A N/A N/A S5        30.12F
ABERDEEN       CLEAR     72  70  94 CALM      30.08F FOG
PATUXENT       CLEAR     77  74  90 SW8       30.08F
OCEAN CITY     PTCLDY    79  77  94 SW9       30.11F
WALLOPS ISLAND MOCLDY    78  78 100 S12       30.11F
CAMBRIDGE      CLEAR     77  75  94 S5        30.09F
SALISBURY      PTCLDY    75  75 100 S5        30.10F

$$
PAZ001-021-NYZ056-072-MDZ011-DCZ001-220800-
OTHER NEARBY LOCATIONS

CITY           SKY/WX    TMP DP  RH WIND       PRES   REMARKS
HARRISBURG     PTCLDY    73  71  93 CALM      30.06F
STATE COLLEGE  CLOUDY    71  68  90 W3        30.08F
WILLIAMSPORT   CLOUDY    70  69  97 CALM      30.05S
BINGHAMTON     PTCLDY    67  65  93 S6        30.07F
NEW YORK CITY  PTCLDY    76  71  85 VRB3      30.09F
BALTIMORE      PTCLDY    71  71 100 CALM      30.07F
WASHINGTON DC  MOCLDY    76  74  93 S7        30.08F

$$




USA.gov is the U.S. government's official web portal to all federal, state and local government web resources and services.